User: anonymous   Login
Location: Oshawa
(43.9000°N, 78.8670°W)
Time: 09:37:12
(UTC-05:00)
Language:

Hubble Space Telescope - Orbit

View from above orbital plane
View from above orbital plane
View from above satellite
View from above satellite

Ground track
Ground track

The orbit data is extracted from the following two-line orbital elements,

1 20580U 90037B   16044.95485789  .00002222  00000-0  12904-3 0  9991
2 20580  28.4709 359.0121 0002468 305.3298  54.7093 15.08151459216330
Epoch (UTC): 13 February 2016 22:54:59
Eccentricity: 0.0002468
inclination: 28.4709°
perigee height: 540 km
apogee height: 543 km
right ascension of ascending node: 359.0121°
argument of perigee: 305.3298°
revolutions per day: 15.08151459
mean anomaly at epoch: 54.7093°
orbit number at epoch: 21633

The dashed part of the orbit path shows where the satellite is in the earth's shadow,  

DLR